カタログに戻る

STARLINK-34953

運用中通信SSO
NORAD 65240·PAYLOAD·🇺🇸 United States

打ち上げ Aug 18, 2025 から Vandenberg Space Force Base

Loading…

次のパス (今後24時間)

TLE

最新Source: CelesTrak SupGP

元期: Sep 14, 2026, 23:08 UTC

1 65240C 25179F   26257.96437500  .00060010  00000+0  18633-2 0  2573
2 65240  97.2831 297.3767 0001158 106.6735 310.9848 15.33401550    14

AllMySatでSTARLINK-34953をリアルタイム追跡

Download on the App Store